STARLINK-32603, 62072

Orbit data source: Space-Track

STARLINK-32603, 62072 is a payload satellite owned by SpaceX/Seattle (US) in LEO that was launched on Sun, 24 Nov 2024 UTC via an FALCON 9 launch vehicle from the Air Force Western Test Range (AFWTR). Payload-class satellites include a variety of spacecraft equipped with specific instruments for various scientific and technological missions. These include communications satellites like Starlink; space stations such as the ISS; scientific satellites like the Hubble; Earth observation satellites from companies like Planet Labs, Umbra, and HawkEye 360; GPS; miniature CubeSats for education and research; and military/defense satellites.

Loading next visibility...
Identifier
62072, 2024-217R
Orbit
LEO
Country
Flag of USUS
Related business
Manufacturer
SpaceX/Seattle
Mission
Operational Commercial Communications
Bus & Motor
STARLINK V2M, Unknown motor
Mass
730 kg wet, ~700 kg dry
Launch date (UTC)
2024-11-24 (1 year ago)
Launch vehicle
FALCON 9
Launch site
Air Force Western Test Range (AFWTR)
Object type
Payload
Rocket body
Debris
Shape & HBR
Box + 2 Pan, 17.7 m
Radar Cross Section
33.884 m², Large (>1 m²)

Expand to show TLE details & history
Last TLE update: 7 hours ago

TLE from 7 hours ago
0 STARLINK-32603
1 62072U 24217R   26095.16890970  .00026261  00000-0  89582-3 0  9997
2 62072  53.1589  71.0240 0000406  84.9817 275.1230 15.30193091 77524
Epoch: 2026-04-05T04:03Z
TLE epoch observation values (Epoch: 2026-04-05T04:03:13.798Z)
Latitude
-0.00001°
Longitude
176.73831°
Altitude
476.11 km
Speed
7.629 km/s
True Right ascension
04h 44m 05s
True Declination
0° 00' 00"
Sunlit
Object was in daylight at epoch
Visualization orbit readout
Latitude
Unknown
Longitude
Unknown
Altitude
Unknown
Speed
Unknown
Apparent Right ascension
Unknown
Apparent Declination
Unknown
Sunlit
N/A
Visualization observer readout
Local Sidereal Time
17:21:14
Azimuth
Unknown
Elevation
Unknown
Doppler factor
Unknown
Orbital elements
Apogee altitude
475.771 km
Perigee altitude
475.214 km
Semi-major axis
6,853.629 km
Eccentricity
0.00004
Inclination
53.1589°
RAAN
71.024°
Arg. of periapsis
84.9817°
True anomaly
275.11837°
Mean anomaly
275.123°
Eccentric anomaly
275.12068°
Mean motion
3.82527 °/min
Orbital period
94.11 mins
BSTAR
0.00089582
Loading maneuver chart data...
Computing Atmospheric mass density...
Loading historical data...
Loading historical data...
Loading historical data...
Loading historical data...
Loading historical data...
Loading historical data...
Loading historical data...

Documentation

Showing up to 5 results
|